![]() |
EMODnet Physics ERDDAP
Easier access to scientific data |
log in|
Brought to you by EMODnet Physics |
| Dataset Title: | NDBC - Collection of dew point temperature (DEWT) TimeSeries - IN SITU MultiPointTimeSeriesObservation
|
| Institution: | NDBC (Dataset ID: TS_DEWT_NDBC) |
| Information: | Summary
| License
| FGDC
| ISO 19115
| Metadata
| Background
| Subset
| Data Access Form
| Make a graph
|
| Name | Last modified | Size | Description | |
|---|---|---|---|---|
| Parent Directory | - | - | ||
| DPIA1_TS_DEWT_012003.nc | 31-Dec-2024 09:20 | 425514 | ||
| DPIA1_TS_DEWT_012004.nc | 31-Dec-2024 09:23 | 424232 | ||
| DPIA1_TS_DEWT_012005.nc | 31-Dec-2024 09:26 | 429411 | ||
| DPIA1_TS_DEWT_012006.nc | 31-Dec-2024 09:29 | 429834 | ||
| DPIA1_TS_DEWT_012007.nc | 31-Dec-2024 09:31 | 426122 | ||
| DPIA1_TS_DEWT_012008.nc | 31-Dec-2024 09:34 | 588200 | ||
| DPIA1_TS_DEWT_012009.nc | 31-Dec-2024 09:36 | 587896 | ||
| DPIA1_TS_DEWT_012013.nc | 31-Dec-2024 09:45 | 428209 | ||
| DPIA1_TS_DEWT_012014.nc | 31-Dec-2024 09:47 | 419799 | ||
| DPIA1_TS_DEWT_012015.nc | 31-Dec-2024 09:49 | 422464 | ||
| DPIA1_TS_DEWT_012019.nc | 20-Jan-2026 08:29 | 428755 | ||
| DPIA1_TS_DEWT_021997.nc | 31-Dec-2024 09:09 | 429470 | ||
| DPIA1_TS_DEWT_022002.nc | 31-Dec-2024 09:17 | 429490 | ||
| DPIA1_TS_DEWT_022003.nc | 31-Dec-2024 09:20 | 428473 | ||
| DPIA1_TS_DEWT_022004.nc | 31-Dec-2024 09:23 | 429417 | ||
| DPIA1_TS_DEWT_022005.nc | 31-Dec-2024 09:26 | 420471 | ||
| DPIA1_TS_DEWT_022006.nc | 31-Dec-2024 09:29 | 440173 | ||
| DPIA1_TS_DEWT_022007.nc | 31-Dec-2024 09:31 | 437242 | ||
| DPIA1_TS_DEWT_022008.nc | 31-Dec-2024 09:34 | 429507 | ||
| DPIA1_TS_DEWT_022013.nc | 31-Dec-2024 09:45 | 420753 | ||
| DPIA1_TS_DEWT_022014.nc | 31-Dec-2024 09:47 | 429839 | ||
| DPIA1_TS_DEWT_022018.nc | 31-Dec-2024 09:56 | 429834 | ||
| DPIA1_TS_DEWT_022019.nc | 20-Jan-2026 08:29 | 429783 | ||
| DPIA1_TS_DEWT_031997.nc | 31-Dec-2024 09:09 | 420890 | ||
| DPIA1_TS_DEWT_032002.nc | 31-Dec-2024 09:17 | 423495 | ||
| DPIA1_TS_DEWT_032003.nc | 31-Dec-2024 09:20 | 422057 | ||
| DPIA1_TS_DEWT_032004.nc | 31-Dec-2024 09:24 | 588104 | ||
| DPIA1_TS_DEWT_032005.nc | 31-Dec-2024 09:26 | 429442 | ||
| DPIA1_TS_DEWT_032006.nc | 31-Dec-2024 09:29 | 429836 | ||
| DPIA1_TS_DEWT_032007.nc | 31-Dec-2024 09:31 | 429488 | ||
| DPIA1_TS_DEWT_032008.nc | 31-Dec-2024 09:34 | 423687 | ||
| DPIA1_TS_DEWT_032012.nc | 31-Dec-2024 09:43 | 429322 | ||
| DPIA1_TS_DEWT_032013.nc | 31-Dec-2024 09:45 | 418885 | ||
| DPIA1_TS_DEWT_032014.nc | 31-Dec-2024 09:47 | 419822 | ||
| DPIA1_TS_DEWT_032018.nc | 31-Dec-2024 09:57 | 440166 | ||
| DPIA1_TS_DEWT_041997.nc | 31-Dec-2024 09:09 | 429099 | ||
| DPIA1_TS_DEWT_042002.nc | 31-Dec-2024 09:17 | 429335 | ||
| DPIA1_TS_DEWT_042003.nc | 31-Dec-2024 09:21 | 426728 | ||
| DPIA1_TS_DEWT_042004.nc | 31-Dec-2024 09:24 | 429585 | ||
| DPIA1_TS_DEWT_042005.nc | 31-Dec-2024 09:27 | 423694 | ||
| DPIA1_TS_DEWT_042006.nc | 31-Dec-2024 09:29 | 588216 | ||
| DPIA1_TS_DEWT_042007.nc | 31-Dec-2024 09:32 | 429706 | ||
| DPIA1_TS_DEWT_042008.nc | 31-Dec-2024 09:34 | 425651 | ||
| DPIA1_TS_DEWT_042012.nc | 31-Dec-2024 09:43 | 429593 | ||
| DPIA1_TS_DEWT_042013.nc | 31-Dec-2024 09:45 | 429578 | ||
| DPIA1_TS_DEWT_042014.nc | 31-Dec-2024 09:48 | 429681 | ||
| DPIA1_TS_DEWT_042015.nc | 31-Dec-2024 09:50 | 429457 | ||
| DPIA1_TS_DEWT_042018.nc | 31-Dec-2024 09:57 | 429613 | ||
| DPIA1_TS_DEWT_051997.nc | 31-Dec-2024 09:10 | 429612 | ||
| DPIA1_TS_DEWT_052002.nc | 31-Dec-2024 09:17 | 450007 | ||
| DPIA1_TS_DEWT_052003.nc | 31-Dec-2024 09:21 | 450639 | ||
| DPIA1_TS_DEWT_052004.nc | 31-Dec-2024 09:24 | 429539 | ||
| DPIA1_TS_DEWT_052005.nc | 31-Dec-2024 09:27 | 450574 | ||
| DPIA1_TS_DEWT_052006.nc | 31-Dec-2024 09:29 | 443370 | ||
| DPIA1_TS_DEWT_052007.nc | 31-Dec-2024 09:32 | 429290 | ||
| DPIA1_TS_DEWT_052008.nc | 31-Dec-2024 09:35 | 429602 | ||
| DPIA1_TS_DEWT_052012.nc | 31-Dec-2024 09:43 | 429600 | ||
| DPIA1_TS_DEWT_052013.nc | 31-Dec-2024 09:45 | 429607 | ||
| DPIA1_TS_DEWT_052014.nc | 31-Dec-2024 09:48 | 429615 | ||
| DPIA1_TS_DEWT_052018.nc | 31-Dec-2024 09:57 | 429602 | ||
| DPIA1_TS_DEWT_061997.nc | 31-Dec-2024 09:10 | 450282 | ||
| DPIA1_TS_DEWT_062002.nc | 31-Dec-2024 09:18 | 450523 | ||
| DPIA1_TS_DEWT_062003.nc | 31-Dec-2024 09:21 | 450829 | ||
| DPIA1_TS_DEWT_062004.nc | 31-Dec-2024 09:24 | 451288 | ||
| DPIA1_TS_DEWT_062005.nc | 31-Dec-2024 09:27 | 451008 | ||
| DPIA1_TS_DEWT_062006.nc | 31-Dec-2024 09:30 | 452150 | ||
| DPIA1_TS_DEWT_062007.nc | 31-Dec-2024 09:32 | 451366 | ||
| DPIA1_TS_DEWT_062008.nc | 31-Dec-2024 09:35 | 420670 | ||
| DPIA1_TS_DEWT_062012.nc | 31-Dec-2024 09:43 | 451654 | ||
| DPIA1_TS_DEWT_062013.nc | 31-Dec-2024 09:46 | 450642 | ||
| DPIA1_TS_DEWT_062014.nc | 31-Dec-2024 09:48 | 451533 | ||
| DPIA1_TS_DEWT_062015.nc | 31-Dec-2024 09:50 | 450316 | ||
| DPIA1_TS_DEWT_062018.nc | 31-Dec-2024 09:57 | 451303 | ||
| DPIA1_TS_DEWT_071997.nc | 31-Dec-2024 09:10 | 429824 | ||
| DPIA1_TS_DEWT_072002.nc | 31-Dec-2024 09:18 | 429828 | ||
| DPIA1_TS_DEWT_072003.nc | 31-Dec-2024 09:22 | 451492 | ||
| DPIA1_TS_DEWT_072004.nc | 31-Dec-2024 09:25 | 450727 | ||
| DPIA1_TS_DEWT_072005.nc | 31-Dec-2024 09:27 | 450651 | ||
| DPIA1_TS_DEWT_072006.nc | 31-Dec-2024 09:30 | 451281 | ||
| DPIA1_TS_DEWT_072007.nc | 31-Dec-2024 09:32 | 429829 | ||
| DPIA1_TS_DEWT_072008.nc | 31-Dec-2024 09:35 | 429828 | ||
| DPIA1_TS_DEWT_072009.nc | 31-Dec-2024 09:37 | 429822 | ||
| DPIA1_TS_DEWT_072012.nc | 31-Dec-2024 09:44 | 429828 | ||
| DPIA1_TS_DEWT_072013.nc | 31-Dec-2024 09:46 | 3277715 | ||
| DPIA1_TS_DEWT_072014.nc | 31-Dec-2024 09:48 | 428591 | ||
| DPIA1_TS_DEWT_072015.nc | 31-Dec-2024 09:51 | 428578 | ||
| DPIA1_TS_DEWT_072018.nc | 31-Dec-2024 09:57 | 428602 | ||
| DPIA1_TS_DEWT_082002.nc | 31-Dec-2024 09:18 | 428895 | ||
| DPIA1_TS_DEWT_082003.nc | 31-Dec-2024 09:22 | 428607 | ||
| DPIA1_TS_DEWT_082004.nc | 31-Dec-2024 09:25 | 428607 | ||
| DPIA1_TS_DEWT_082005.nc | 31-Dec-2024 09:28 | 447701 | ||
| DPIA1_TS_DEWT_082006.nc | 31-Dec-2024 09:30 | 435831 | ||
| DPIA1_TS_DEWT_082007.nc | 31-Dec-2024 09:32 | 428606 | ||
| DPIA1_TS_DEWT_082008.nc | 31-Dec-2024 09:35 | 446957 | ||
| DPIA1_TS_DEWT_082009.nc | 31-Dec-2024 09:37 | 447633 | ||
| DPIA1_TS_DEWT_082012.nc | 31-Dec-2024 09:44 | 428951 | ||
| DPIA1_TS_DEWT_082013.nc | 31-Dec-2024 09:46 | 428604 | ||
| DPIA1_TS_DEWT_082014.nc | 31-Dec-2024 09:48 | 428606 | ||
| DPIA1_TS_DEWT_082015.nc | 31-Dec-2024 09:51 | 428604 | ||
| DPIA1_TS_DEWT_092002.nc | 31-Dec-2024 09:18 | 428949 | ||
| DPIA1_TS_DEWT_092003.nc | 31-Dec-2024 09:22 | 428607 | ||
| DPIA1_TS_DEWT_092004.nc | 31-Dec-2024 09:25 | 448243 | ||
| DPIA1_TS_DEWT_092005.nc | 31-Dec-2024 09:28 | 446312 | ||
| DPIA1_TS_DEWT_092006.nc | 31-Dec-2024 09:30 | 419193 | ||
| DPIA1_TS_DEWT_092007.nc | 31-Dec-2024 09:33 | 447723 | ||
| DPIA1_TS_DEWT_092008.nc | 31-Dec-2024 09:35 | 448246 | ||
| DPIA1_TS_DEWT_092012.nc | 31-Dec-2024 09:44 | 448005 | ||
| DPIA1_TS_DEWT_092013.nc | 31-Dec-2024 09:46 | 448448 | ||
| DPIA1_TS_DEWT_092014.nc | 31-Dec-2024 09:49 | 447148 | ||
| DPIA1_TS_DEWT_092015.nc | 31-Dec-2024 09:51 | 448201 | ||
| DPIA1_TS_DEWT_092018.nc | 20-Jan-2026 08:27 | 448884 | ||
| DPIA1_TS_DEWT_102002.nc | 31-Dec-2024 09:19 | 446699 | ||
| DPIA1_TS_DEWT_102003.nc | 31-Dec-2024 09:22 | 447518 | ||
| DPIA1_TS_DEWT_102004.nc | 31-Dec-2024 09:25 | 428797 | ||
| DPIA1_TS_DEWT_102005.nc | 31-Dec-2024 09:28 | 429145 | ||
| DPIA1_TS_DEWT_102006.nc | 31-Dec-2024 09:30 | 447578 | ||
| DPIA1_TS_DEWT_102007.nc | 31-Dec-2024 09:33 | 448071 | ||
| DPIA1_TS_DEWT_102008.nc | 31-Dec-2024 09:36 | 447405 | ||
| DPIA1_TS_DEWT_102012.nc | 31-Dec-2024 09:44 | 449123 | ||
| DPIA1_TS_DEWT_102013.nc | 31-Dec-2024 09:46 | 428783 | ||
| DPIA1_TS_DEWT_102014.nc | 31-Dec-2024 09:49 | 428794 | ||
| DPIA1_TS_DEWT_102015.nc | 31-Dec-2024 09:51 | 428797 | ||
| DPIA1_TS_DEWT_102018.nc | 20-Jan-2026 08:28 | 419273 | ||
| DPIA1_TS_DEWT_112002.nc | 31-Dec-2024 09:19 | 4985837 | ||
| DPIA1_TS_DEWT_112003.nc | 31-Dec-2024 09:23 | 429551 | ||
| DPIA1_TS_DEWT_112004.nc | 31-Dec-2024 09:26 | 429582 | ||
| DPIA1_TS_DEWT_112005.nc | 31-Dec-2024 09:28 | 429610 | ||
| DPIA1_TS_DEWT_112006.nc | 31-Dec-2024 09:31 | 429587 | ||
| DPIA1_TS_DEWT_112007.nc | 31-Dec-2024 09:33 | 429600 | ||
| DPIA1_TS_DEWT_112008.nc | 31-Dec-2024 09:36 | 429611 | ||
| DPIA1_TS_DEWT_112012.nc | 31-Dec-2024 09:44 | 450457 | ||
| DPIA1_TS_DEWT_112013.nc | 31-Dec-2024 09:47 | 429588 | ||
| DPIA1_TS_DEWT_112014.nc | 31-Dec-2024 09:49 | 429426 | ||
| DPIA1_TS_DEWT_112018.nc | 20-Jan-2026 08:28 | 450869 | ||
| DPIA1_TS_DEWT_122002.nc | 31-Dec-2024 09:19 | 451017 | ||
| DPIA1_TS_DEWT_122003.nc | 31-Dec-2024 09:23 | 429608 | ||
| DPIA1_TS_DEWT_122004.nc | 31-Dec-2024 09:26 | 429614 | ||
| DPIA1_TS_DEWT_122005.nc | 31-Dec-2024 09:28 | 429601 | ||
| DPIA1_TS_DEWT_122006.nc | 31-Dec-2024 09:31 | 429602 | ||
| DPIA1_TS_DEWT_122007.nc | 31-Dec-2024 09:33 | 429609 | ||
| DPIA1_TS_DEWT_122008.nc | 31-Dec-2024 09:36 | 429602 | ||
| DPIA1_TS_DEWT_122012.nc | 31-Dec-2024 09:44 | 451548 | ||
| DPIA1_TS_DEWT_122013.nc | 31-Dec-2024 09:47 | 451145 | ||
| DPIA1_TS_DEWT_122014.nc | 31-Dec-2024 09:49 | 450432 | ||
| DPIA1_TS_DEWT_122018.nc | 20-Jan-2026 08:28 | 450813 | ||